Observations
| Time | Sensor | AQI | SAQ | Temp °C | Hum % | Pres Pa | CO μg/m³ | H₂S μg/m³ | NO μg/m³ | NO₂ μg/m³ | O₃ μg/m³ | SO₂ μg/m³ | CO₂e PPM | VOC PPM | PM1 μg/m³ | PM2.5 μg/m³ | PM4 μg/m³ | PM10 μg/m³ | TPS µm |
|---|---|---|---|---|---|---|---|---|---|---|---|---|---|---|---|---|---|---|---|
| Wednesday 12 August 2026 | |||||||||||||||||||
| 08:06 | Trim Market St | 2 | 21.3 | 66 | 56,272 | 0.02 | 0 | 1.08 | 39.04 | 59.63 | 0 | 6.41 | 8.17 | 11.44 | |||||
| 08:05 | Trim Patrick St | 2 | 21.3 | 66 | 25,645 | 0 | 3.64 | 1.13 | 10.57 | 58.94 | 0.68 | 8.86 | 14.13 | 15.55 | |||||
| 08:05 | Trim Market St | 2 | 21.3 | 66 | 56,505 | 0.03 | 0 | 1.09 | 31.62 | 62.98 | 0 | 7.13 | 7.69 | 12.1 | |||||
| 08:04 | Trim Patrick St | 2 | 21.4 | 68 | 21,373 | 0 | 5.91 | 1.14 | 25.88 | 54.34 | 1.06 | 8 | 13.27 | 14.59 | |||||
| 08:04 | Trim Market St | 2 | 21.4 | 65 | 56,668 | 0.03 | 0 | 1.09 | 44.69 | 58.13 | 0 | 4.99 | 7.71 | 11.46 | |||||
| 08:03 | Trim Patrick St | 2 | 21.4 | 67 | 15,676 | 0 | 3.54 | 1.11 | 17.1 | 54.53 | 0 | 8 | 11.86 | 13.04 | |||||
| 08:03 | Trim Market St | 2 | 21.5 | 65 | 56,833 | 0.04 | 0 | 1.1 | 30.45 | 57.28 | 0 | 2.14 | 5.75 | 10.15 | |||||
| 08:02 | Trim Patrick St | 2 | 21.4 | 67 | 8,075 | 0 | 5.38 | 1.1 | 18.1 | 60.87 | 0.74 | 6.29 | 9.7 | 10.67 | |||||
| 08:02 | Trim Market St | 2 | 21.5 | 65 | 56,953 | 0.06 | 0 | 1.11 | 30.67 | 58.79 | 0 | 4.28 | 7.25 | 10.16 | |||||
| 08:01 | Trim Patrick St | 2 | 21.5 | 67 | 111,793 | 0 | 0.29 | 1.13 | 17.26 | 51.93 | 0.47 | 6.29 | 10.44 | 11.49 | |||||
| 08:01 | Trim Market St | 2 | 21.6 | 64 | 57,095 | 0.04 | 0 | 1.12 | 15.4 | 73.73 | 0 | 5.7 | 7.27 | 11.49 | |||||
| 08:00 | Trim Patrick St | 2 | 21.5 | 67 | 103,825 | 0 | 0 | 1.21 | 5.97 | 50.77 | 0.06 | 7.14 | 12.64 | 13.91 | |||||
| 07:59 | Trim Patrick St | 2 | 21.5 | 64 | 99,078 | 0 | 3.58 | 1.2 | 22.02 | 62.63 | 0.13 | 7.14 | 12.1 | 13.31 | |||||
| 07:58 | Trim Patrick St | 2 | 21.5 | 66 | 95,038 | 0 | 0.84 | 1.28 | 19.4 | 54.7 | 0 | 7.14 | 11.22 | 12.34 | |||||
| 07:58 | Trim Market St | 2 | 21.7 | 64 | 57,248 | 0.05 | 0 | 1.14 | 16.07 | 64.75 | 0 | 5.7 | 7.81 | 10.85 | |||||
| 07:57 | Trim Patrick St | 2 | 21.6 | 66 | 90,939 | 0 | 0 | 1.32 | 14.34 | 51.54 | 0 | 8.86 | 12.69 | 13.96 | |||||
| 07:56 | Trim Patrick St | 2 | 21.6 | 66 | 88,331 | 0 | 0 | 1.35 | 16.63 | 45.23 | 0 | 7.14 | 12.73 | 14 | |||||
| 07:55 | Trim Patrick St | 2 | 21.6 | 66 | 87,182 | 0 | 0 | 1.24 | 9.35 | 53.7 | 0 | 9.71 | 14.2 | 15.62 | |||||
| 07:54 | Trim Patrick St | 2 | 21.6 | 66 | 86,482 | 0 | 0 | 1.2 | 10.12 | 52 | 0 | 5.43 | 9.08 | 9.99 | |||||
| 07:54 | Trim Market St | 2 | 21.8 | 63 | 57,357 | 0.05 | 0 | 1.15 | 11.61 | 63.49 | 0 | 4.99 | 6.84 | 10.2 | |||||